Regional Weather Roundup
Issued by NWS

Home | Current Version | Previous Version | Graphics & Text | Print | Product List | Glossary On
Versions: 1 2 3 4 5 6 7 8 9 10 11 12 13 14 15 16 17 18 19 20 21 22 23 24 25 26 27 28 29 30 31 32 33 34 35 36 37 38 39 40 41 42 43 44 45 46 47 48 49 50
220
ASUS43 KLSX 310507
RWRMO

WEATHER SUMMARY FOR MISSOURI
NATIONAL WEATHER SERVICE SPRINGFIELD MO
1200 AM CDT SUN JUL 31 2016

NOTE: "FAIR" INDICATES FEW OR NO CLOUDS BELOW 12,000 FEET WITH NO
       SIGNIFICANT WEATHER AND/OR OBSTRUCTIONS TO VISIBILITY.
       CURRENT SKY AND/OR WEATHER CONDITIONS ARE NOT AVAILABLE FOR
       CHILLICOTHE AND FARMINGTON.

MOZ001>031-035>038-043-044-053-054-310600-
...NORTHERN AND WESTERN MISSOURI...

CITY           SKY/WX    TMP DP  RH WIND       PRES   REMARKS
KANSAS CTY INT CLEAR     75  65  70 SE8       29.99S
KANSAS C DTWN  CLEAR     77  67  71 E6        29.98S
LEE`S SUMMIT   CLEAR     74  67  78 E7        30.00S
ST JOSEPH      CLEAR     72  66  81 SE6       29.98F
CHILLICOTHE      N/A     68  66  93 CALM      30.02R
KIRKSVILLE     CLEAR     64  62  93 CALM      30.02R

$$
MOZ066>068-077>081-088>096-101>105-310600-
...SOUTHWEST MISSOURI...

CITY           SKY/WX    TMP DP  RH WIND       PRES   REMARKS
SPRINGFIELD    CLEAR     75  69  81 SE3       30.01F
JOPLIN         CLEAR     75  71  87 SE6       29.99F
BRANSON        CLOUDY    72  72 100 CALM      30.03F

$$
MOZ032>034-039>042-045>050-055>058-069>072-310600-
...CENTRAL MISSOURI...

CITY           SKY/WX    TMP DP  RH WIND       PRES   REMARKS
COLUMBIA       CLEAR     68  66  93 E5        30.01S
JEFFERSON CITY CLEAR     70  66  87 CALM      30.00R
ROLLA          CLEAR     69  65  86 CALM      30.01S
SEDALIA        CLEAR     72  66  81 SE5       30.02R
WHITEMAN AFB   CLEAR     71  69  96 SE5       29.99R
OSAGE BEACH    CLEAR     70  69  97 CALM      30.02S

$$
MOZ051-052-059>065-310600-
...EAST CENTRAL MISSOURI...

CITY           SKY/WX    TMP DP  RH WIND       PRES   REMARKS
ST LOUIS INTL  PTCLDY    75  67  76 SE3       30.01R
SPIRIT OF STL  CLEAR     69  68  96 CALM      29.99R
ST CHARLES     CLEAR     72  70  93 W3        29.99R

$$
MOZ072>076-082>087-097>100-106>115-310600-
...SOUTH CENTRAL AND SOUTHEAST MISSOURI...

CITY           SKY/WX    TMP DP  RH WIND       PRES   REMARKS
CAPE GIRARDEAU MOCLDY    76  73  91 CALM      29.98F
FARMINGTON     PTCLDY    71  69  93 CALM      30.02S
POPLAR BLUFF   CLOUDY    77  75  93 CALM      29.98F
WEST PLAINS    CLEAR     74  71  91 SW3       30.04F

$$



USA.gov is the U.S. government's official web portal to all federal, state and local government web resources and services.